订阅

最新回复

标题 版块/群组 作者 回复/查看 最后发表
Just wanted to say Hello.新人帖 通知 NelsonKlin 2020-10-3 025 NelsonKlin 2020-10-3 13:10
w24tns1 i670iu 通知 LarikJoime 2020-10-3 024 LarikJoime 2020-10-3 13:08
r84upcg d70ogk 通知 LarikJoime 2020-10-3 029 LarikJoime 2020-10-3 12:56
u81afsh l195lt 通知 LarikJoime 2020-10-3 132 n锋扬彬j 2020-10-3 12:53
n56dewe l47lri 通知 LarikJoime 2020-10-3 120 y官兴俭s 2020-10-3 12:47
h95wlre v154cq 通知 LarikJoime 2020-10-3 117 y官兴俭s 2020-10-3 12:41
h923iin t63fqg 通知 LarikJoime 2020-10-3 121 j修银洁j 2020-10-3 12:36
e94hlnq b51kfa 通知 LarikJoime 2020-10-3 122 t鑫馥钰o 2020-10-3 12:24
w90cejb u44cae 通知 LarikJoime 2020-10-3 126 c达龙萍j 2020-10-3 12:19
k89tyu4 s555gl 通知 LarikJoime 2020-10-3 121 w二小桃z 2020-10-3 12:13
casino games online 通知 LeopoldoMa 2020-10-3 123 c广文荡w 2020-10-3 12:10
r29byeh c32aap 通知 LarikJoime 2020-10-3 126 p娥非娟r 2020-10-3 12:06
i879uy2 n40tti 通知 LarikJoime 2020-10-3 121 z不能汞q 2020-10-3 12:02
d13emdp t75xlb 通知 LarikJoime 2020-10-3 123 9淙凇召b 2020-10-3 11:55
a34mxgj t474ai 通知 LarikJoime 2020-10-3 117 n隆攀白o 2020-10-3 11:51
l16yuyg g11kld 通知 LarikJoime 2020-10-3 125 8年美圣c 2020-10-3 11:45
i72yurz z857kq 通知 LarikJoime 2020-10-3 116 n隆攀白o 2020-10-3 11:40
v43zlim n92gli 通知 LarikJoime 2020-10-3 134 0发宇艳g 2020-10-3 11:34
s83bwy0 o198sf 通知 LarikJoime 2020-10-3 116 j修银洁j 2020-10-3 11:30
xeueysgn 通知 ZakNex 2020-10-3 119 t鑫馥钰o 2020-10-3 11:28
f330ph8 t501fq 通知 LarikJoime 2020-10-3 115 w二小桃z 2020-10-3 11:22
e66gqw6 j77ttf 通知 LarikJoime 2020-10-3 124 0发宇艳g 2020-10-3 11:20
buhvcbsz 通知 WimNex 2020-10-3 118 c广文荡w 2020-10-3 11:19
a737brd j58szd 通知 LarikJoime 2020-10-3 127 c广文荡w 2020-10-3 11:12
f938tvb j84suj 通知 LarikJoime 2020-10-3 118 j修银洁j 2020-10-3 11:08
w83yncq h13gum 通知 LarikJoime 2020-10-3 118 n锋扬彬j 2020-10-3 11:00
u42pzge j85ccn 通知 LarikJoime 2020-10-3 116 0发宇艳g 2020-10-3 10:55
n87tzrs d889yw 通知 LarikJoime 2020-10-3 136 0发宇艳g 2020-10-3 10:49
m65ugxr v93jra 通知 LarikJoime 2020-10-3 131 0发宇艳g 2020-10-3 10:44
j153vtq c47qmy 通知 LarikJoime 2020-10-3 130 w赐源带f 2020-10-3 10:39
a82ezhq g96brr 通知 LarikJoime 2020-10-3 131 s朝歌驰i 2020-10-3 10:37
e358wbv s28grz 通知 LarikJoime 2020-10-3 124 p娥非娟r 2020-10-3 10:35
e59tmv6 z55nkq 通知 LarikJoime 2020-10-3 162 t鑫馥钰o 2020-10-3 10:34
v772qty m45tca 通知 LarikJoime 2020-10-3 127 s朝歌驰i 2020-10-3 10:32
j50nqae w89dhd 通知 LarikJoime 2020-10-3 127 n锋扬彬j 2020-10-3 10:30
q936uzs l965dz 通知 LarikJoime 2020-10-3 128 n隆攀白o 2020-10-3 10:27
t42vrc2 f94vrt 通知 LarikJoime 2020-10-3 129 y官兴俭s 2020-10-3 10:25
irsefmebq 通知 PaulNex 2020-10-3 127 0发宇艳g 2020-10-3 10:23
g93mvd3 f49kgl 通知 LarikJoime 2020-10-3 117 n锋扬彬j 2020-10-3 10:22
又一个免费音乐资源网站倒下,What.cd今天关闭 2020年10月03日 通知 j修银洁j 2020-10-3 115 c琪告陇r 2020-10-3 10:20
t602aa4 t98kda 通知 LarikJoime 2020-10-3 124 p代彬子p 2020-10-3 10:18
h572cmp h353bp 通知 LarikJoime 2020-10-3 128 w赐源带f 2020-10-3 10:16
j12iaqx q27yhw 通知 LarikJoime 2020-10-3 124 n锋扬彬j 2020-10-3 10:15
online casino 通知 LeopoldoMa 2020-10-3 122 z不能汞q 2020-10-3 10:13
q21gdhn b42foi 通知 LarikJoime 2020-10-3 123 w赐源带f 2020-10-3 10:11
obbbyaha 通知 KiaNex 2020-10-3 128 c广文荡w 2020-10-3 10:10
m71rzgf n64fbl 通知 LarikJoime 2020-10-3 121 p代彬子p 2020-10-3 10:08
x34clxe r317rd 通知 LarikJoime 2020-10-3 126 8年美圣c 2020-10-3 10:06
m62cbj4 a86ruk 通知 LarikJoime 2020-10-3 125 w二小桃z 2020-10-3 10:05
i99ivut n89fua 通知 LarikJoime 2020-10-3 126 g佳福霏l 2020-10-3 10:01

Archiver|手机版|小黑屋|DiscuzX

GMT+8, 2020-10-21 09:56 , Processed in 0.043812 second(s), 12 queries .

Powered by Discuz! X3.4

© 2001-2017 Comsenz Inc. Template By 【未来科技】【 www.wekei.cn 】

返回顶部